EN

Hourly Weather Ziemielowice

Today, 1 October, Thursday

Time Temperature Precipitation Wind Pressure Humidity
00:00 +12°C° 0.4 mm 4 mps 742 mmHg 87%
01:00 +12°C° 0 mm 3 mps 742 mmHg 93%
02:00 +12°C° 0.4 mm 3 mps 742 mmHg 94%
03:00 +12°C° 0.4 mm 3 mps 741 mmHg 95%
04:00 +12°C° 0.4 mm 3 mps 741 mmHg 95%
05:00 +12°C° 0.3 mm 3 mps 741 mmHg 95%
06:00 +12°C° 0.3 mm 3 mps 740 mmHg 95%
07:00 +12°C° 0 mm 3 mps 740 mmHg 94%
08:00 +12°C° 0.2 mm 3 mps 740 mmHg 93%
09:00 +12°C° 0.2 mm 3 mps 740 mmHg 92%
10:00 +13°C° 0.2 mm 2 mps 739 mmHg 91%
11:00 +13°C° 0.2 mm 2 mps 739 mmHg 90%
12:00 +13°C° 0.2 mm 3 mps 739 mmHg 88%
13:00 +13°C° 0.2 mm 3 mps 739 mmHg 87%
14:00 +14°C° 0.1 mm 2 mps 739 mmHg 88%
15:00 +13°C° 0.1 mm 2 mps 738 mmHg 88%
16:00 +13°C° 0.1 mm 2 mps 738 mmHg 89%
17:00 +13°C° 0.4 mm 2 mps 738 mmHg 90%
18:00 +12°C° 0.4 mm 2 mps 738 mmHg 92%
19:00 +12°C° 0.4 mm 1 mps 738 mmHg 93%
20:00 +12°C° 0.1 mm 1 mps 738 mmHg 93%
21:00 +12°C° 0.1 mm 1 mps 738 mmHg 93%
22:00 +12°C° 0.1 mm 1 mps 738 mmHg 94%
23:00 +12°C° 0 mm 1 mps 738 mmHg 94%

Tomorrow, 2 October, Friday

Time Temperature Precipitation Wind Pressure Humidity
00:00 +12°C° 0 mm 1 mps 738 mmHg 94%
01:00 +12°C° 0 mm 1 mps 738 mmHg 94%
02:00 +12°C° 0 mm 1 mps 737 mmHg 94%
03:00 +12°C° 0 mm 1 mps 737 mmHg 95%
04:00 +12°C° 0 mm 1 mps 737 mmHg 95%
05:00 +12°C° 0.1 mm 1 mps 737 mmHg 95%
06:00 +12°C° 0.1 mm 1 mps 737 mmHg 95%
07:00 +12°C° 0.1 mm 1 mps 737 mmHg 95%
08:00 +13°C° 0 mm 2 mps 737 mmHg 92%
09:00 +14°C° 0 mm 2 mps 738 mmHg 88%
10:00 +14°C° 0 mm 2 mps 738 mmHg 85%
11:00 +14°C° 0 mm 3 mps 738 mmHg 82%
12:00 +16°C° 0 mm 3 mps 738 mmHg 80%
13:00 +17°C° 0 mm 3 mps 737 mmHg 77%
14:00 +17°C° 0 mm 4 mps 737 mmHg 77%
15:00 +17°C° 0 mm 4 mps 737 mmHg 76%
16:00 +17°C° 0 mm 4 mps 737 mmHg 76%
17:00 +15°C° 0 mm 4 mps 737 mmHg 79%
18:00 +14°C° 0 mm 5 mps 737 mmHg 82%
19:00 +13°C° 0 mm 5 mps 737 mmHg 86%
20:00 +14°C° 0 mm 5 mps 737 mmHg 84%
21:00 +14°C° 0 mm 5 mps 737 mmHg 82%
22:00 +15°C° 0 mm 6 mps 737 mmHg 81%
23:00 +15°C° 0 mm 6 mps 736 mmHg 80%

Day after tomorrow, 3 October, Saturday

Time Temperature Precipitation Wind Pressure Humidity
00:00 +15°C° 0 mm 7 mps 736 mmHg 78%
01:00 +15°C° 0 mm 7 mps 735 mmHg 77%
02:00 +15°C° 0 mm 7 mps 735 mmHg 78%
03:00 +15°C° 0 mm 6 mps 735 mmHg 78%
04:00 +14°C° 0 mm 6 mps 734 mmHg 79%
05:00 +14°C° 0 mm 6 mps 734 mmHg 77%
06:00 +15°C° 0 mm 6 mps 734 mmHg 75%
07:00 +15°C° 0 mm 6 mps 734 mmHg 74%
08:00 +17°C° 0 mm 7 mps 734 mmHg 67%
09:00 +20°C° 0 mm 8 mps 734 mmHg 60%
10:00 +22°C° 0 mm 9 mps 734 mmHg 54%
11:00 +23°C° 0 mm 9 mps 734 mmHg 53%
12:00 +23°C° 0 mm 9 mps 734 mmHg 52%
13:00 +24°C° 0 mm 9 mps 734 mmHg 51%
14:00 +24°C° 0 mm 9 mps 734 mmHg 53%
15:00 +23°C° 0 mm 8 mps 734 mmHg 56%
16:00 +23°C° 0 mm 8 mps 733 mmHg 58%
17:00 +22°C° 0 mm 8 mps 734 mmHg 59%
18:00 +22°C° 0 mm 8 mps 734 mmHg 60%
19:00 +21°C° 0 mm 7 mps 734 mmHg 60%
20:00 +22°C° 0 mm 8 mps 734 mmHg 59%
21:00 +22°C° 0 mm 8 mps 733 mmHg 58%
22:00 +22°C° 0 mm 8 mps 733 mmHg 56%
23:00 +22°C° 0 mm 9 mps 733 mmHg 56%

4 October, Sunday

Time Temperature Precipitation Wind Pressure Humidity
00:00 +22°C° 0 mm 9 mps 733 mmHg 55%
01:00 +22°C° 0 mm 9 mps 733 mmHg 54%
02:00 +22°C° 0 mm 9 mps 733 mmHg 55%
03:00 +21°C° 0 mm 9 mps 733 mmHg 56%
04:00 +21°C° 0 mm 10 mps 733 mmHg 57%
05:00 +21°C° 0 mm 9 mps 733 mmHg 60%
06:00 +20°C° 0 mm 8 mps 734 mmHg 62%
07:00 +20°C° 0 mm 7 mps 734 mmHg 65%
08:00 +20°C° 0 mm 8 mps 735 mmHg 62%
09:00 +20°C° 0 mm 8 mps 735 mmHg 60%
10:00 +20°C° 0 mm 8 mps 736 mmHg 57%
11:00 +21°C° 0 mm 7 mps 737 mmHg 56%
12:00 +21°C° 0 mm 6 mps 737 mmHg 55%
13:00 +22°C° 0 mm 5 mps 738 mmHg 54%
14:00 +21°C° 0 mm 4 mps 738 mmHg 55%
15:00 +21°C° 0 mm 4 mps 739 mmHg 57%
16:00 +21°C° 0 mm 4 mps 739 mmHg 59%
17:00 +20°C° 0 mm 3 mps 739 mmHg 62%
18:00 +18°C° 0 mm 3 mps 740 mmHg 65%
19:00 +17°C° 0 mm 3 mps 740 mmHg 68%
20:00 +17°C° 0 mm 4 mps 740 mmHg 69%
21:00 +17°C° 0 mm 4 mps 740 mmHg 69%
22:00 +15°C° 0 mm 5 mps 740 mmHg 69%
23:00 +15°C° 0 mm 5 mps 740 mmHg 69%

5 October, Monday

Time Temperature Precipitation Wind Pressure Humidity
00:00 +15°C° 0 mm 5 mps 740 mmHg 70%
01:00 +15°C° 0 mm 5 mps 739 mmHg 70%
02:00 +14°C° 0 mm 5 mps 739 mmHg 69%
03:00 +14°C° 0 mm 5 mps 739 mmHg 69%
04:00 +14°C° 0 mm 5 mps 738 mmHg 68%
05:00 +14°C° 0 mm 5 mps 738 mmHg 69%
06:00 +14°C° 0 mm 5 mps 738 mmHg 70%
07:00 +14°C° 0 mm 5 mps 738 mmHg 71%
08:00 +16°C° 0 mm 6 mps 738 mmHg 66%
09:00 +18°C° 0 mm 7 mps 737 mmHg 61%
10:00 +21°C° 0 mm 8 mps 737 mmHg 56%
11:00 +22°C° 0 mm 8 mps 737 mmHg 54%
12:00 +22°C° 0 mm 7 mps 737 mmHg 52%
13:00 +23°C° 0 mm 7 mps 737 mmHg 50%
14:00 +22°C° 0.4 mm 7 mps 737 mmHg 54%
15:00 +21°C° 0.4 mm 6 mps 737 mmHg 58%
16:00 +20°C° 0.4 mm 6 mps 737 mmHg 63%
17:00 +19°C° 0.4 mm 5 mps 738 mmHg 67%
18:00 +17°C° 0.4 mm 5 mps 738 mmHg 71%
19:00 +17°C° 0.4 mm 4 mps 739 mmHg 76%
20:00 +15°C° 0 mm 4 mps 740 mmHg 78%
21:00 +14°C° 0 mm 4 mps 740 mmHg 79%
22:00 +13°C° 0 mm 4 mps 741 mmHg 81%
23:00 +13°C° 0 mm 4 mps 741 mmHg 82%

6 October, Tuesday

Time Temperature Precipitation Wind Pressure Humidity
00:00 +12°C° 0 mm 4 mps 741 mmHg 83%
01:00 +12°C° 0 mm 4 mps 742 mmHg 83%
02:00 +11°C° 0 mm 3 mps 742 mmHg 84%
03:00 +11°C° 0 mm 3 mps 742 mmHg 85%
04:00 +11°C° 0 mm 3 mps 742 mmHg 85%
05:00 +11°C° 0 mm 3 mps 742 mmHg 84%
06:00 +11°C° 0 mm 3 mps 743 mmHg 84%
07:00 +11°C° 0 mm 3 mps 743 mmHg 83%
08:00 +13°C° 0 mm 3 mps 743 mmHg 74%
09:00 +16°C° 0 mm 3 mps 743 mmHg 65%
10:00 +18°C° 0 mm 3 mps 743 mmHg 56%
11:00 +18°C° 0 mm 3 mps 743 mmHg 53%
12:00 +19°C° 0 mm 3 mps 743 mmHg 50%
13:00 +20°C° 0 mm 3 mps 743 mmHg 46%
14:00 +19°C° 0 mm 2 mps 743 mmHg 49%
15:00 +19°C° 0 mm 2 mps 743 mmHg 52%
16:00 +20°C° 0 mm 1 mps 742 mmHg 54%
17:00 +18°C° 0 mm 1 mps 743 mmHg 57%
18:00 +16°C° 0 mm 1 mps 743 mmHg 60%
19:00 +15°C° 0 mm 1 mps 743 mmHg 63%
20:00 +14°C° 0 mm 1 mps 743 mmHg 65%
21:00 +14°C° 0 mm 1 mps 743 mmHg 66%
22:00 +13°C° 0 mm 1 mps 743 mmHg 68%
23:00 +13°C° 0 mm 1 mps 743 mmHg 71%
Show more

We Need Your Consent

Meteoprog and our Service Providers may store and access personal data such as cookies, device identifiers or other similar technologies on your device and process such data to personalise content and ads, as well as provide social media features and to analyse the traffic.

  • Store and/or access information on your device

    Cookies, device identifiers or other information can be stored or accessed on your device for the purposes indicated above.

  • Personalised ads and content, ad and content measurement, audience insights, and products development

    Ads and content can be personalised based on a profile. More data can be added to better personalise ads and content. Ad and content performance can be measured. Insights about the audience who saw the ads and content can be derived. Such data can be used to develop or improve user’s experience, systems and software.

By clicking ‘I Agree’ you will allow the use of indicated cookies, device identifiers, web beacons or other similar technologies. Your settings can be changed in the browser on your device.

For certain purposes, legitimate interests may be relied on, rather than consent. You can read more about this in our Privacy and Cookie Policy.